Date,TemperatureHighF,TemperatureAvgF,TemperatureLowF,DewpointHighF,DewpointAvgF,DewpointLowF,HumidityHigh,HumidityAvg,HumidityLow,PressureMaxIn,PressureMinIn,WindSpeedMaxMPH,WindSpeedAvgMPH,GustSpeedMaxMPH,PrecipitationSumIn
2013-1-1,76,75,74,70,69,66,86,81,74,30.14,30.02,17,11,20,0.00
2013-1-2,80,75,73,72,71,69,92,86,77,30.08,29.99,10,6,12,0.00
2013-1-3,79,75,73,74,72,69,95,88,83,30.11,30.02,10,7,11,0.00
2013-1-4,78,75,74,75,73,72,95,93,88,30.19,30.09,9,6,11,0.00
2013-1-5,77,75,73,74,72,71,95,91,87,30.20,30.11,17,11,23,0.01
2013-1-6,79,77,76,74,73,72,92,88,84,30.15,30.03,20,14,23,0.00
2013-1-7,79,78,74,73,72,71,91,83,79,30.12,30.04,6,2,9,0.00
2013-1-8,80,78,77,76,74,72,89,86,81,30.16,30.07,26,12,29,0.01
2013-1-9,79,78,77,74,73,72,87,85,81,30.22,30.11,30,22,34,0.01
2013-1-10,78,77,77,73,72,71,85,84,83,30.21,30.19,31,27,37,0.00
2013-1-13,77,76,76,68,66,64,74,70,67,30.09,30.06,23,16,30,0.00
2013-1-14,77,76,75,69,66,63,78,72,66,30.13,30.07,22,17,28,0.00
2013-1-16,78,77,76,72,71,70,86,83,78,30.04,29.99,12,10,16,0.00
2013-1-19,74,71,68,69,66,64,89,84,76,30.19,30.07,12,7,14,0.00
2013-1-20,75,72,69,71,69,67,94,89,83,30.13,29.99,12,7,15,0.00
2013-1-21,79,73,70,72,69,65,92,86,77,30.06,29.98,13,7,22,0.00
2013-1-22,74,70,67,65,63,61,89,79,68,30.17,30.01,26,14,30,0.00
2013-1-23,72,69,66,63,61,60,84,76,66,30.25,30.14,25,19,30,0.00
2013-1-24,72,69,65,65,62,60,86,79,67,30.27,30.16,24,16,30,0.00
2013-1-25,73,70,67,65,61,59,82,74,63,30.25,30.15,21,15,25,0.00
2013-1-26,73,70,66,68,65,61,87,83,74,30.21,30.13,23,14,26,0.00
2013-1-27,75,73,71,70,68,67,92,86,79,30.22,30.14,31,17,35,0.00
2013-1-28,76,75,74,69,68,66,83,79,76,30.27,30.19,31,24,35,0.00
2013-1-29,77,76,75,71,70,68,85,82,77,30.19,30.09,25,20,29,0.00
2013-1-30,77,75,75,73,69,67,89,81,74,30.10,29.98,23,17,28,0.00
2013-1-31,77,71,68,74,66,59,90,85,72,30.15,29.99,20,12,26,0.00
2013-2-1,70,64,59,61,56,52,80,74,69,30.21,30.12,30,22,33,0.00
2013-2-2,72,68,63,63,60,54,86,76,63,30.21,30.09,24,16,28,0.00
2013-2-3,69,67,65,63,61,58,85,81,78,30.15,30.04,20,12,24,0.00
2013-2-4,71,69,64,60,57,52,71,65,60,30.10,30.01,16,12,22,0.00
2013-2-5,75,72,68,68,65,59,85,78,68,30.06,29.98,14,9,16,0.00
2013-2-6,76,74,71,70,68,65,92,82,74,30.07,29.99,21,11,25,0.00
2013-2-7,78,75,73,70,68,66,86,80,74,30.06,29.94,19,10,22,0.00
2013-2-8,80,76,72,74,71,67,93,86,74,30.03,29.92,11,7,19,0.00
2013-2-9,76,73,69,71,67,63,90,83,76,30.12,30.01,27,16,31,0.00
2013-2-10,75,75,74,68,67,65,80,77,71,30.20,30.10,27,23,30,0.00
2013-2-11,76,75,74,70,69,67,85,82,79,30.18,30.09,26,18,31,0.00
2013-2-12,80,77,75,74,71,69,86,83,80,30.10,30.01,21,14,24,0.00
2013-2-14,72,68,67,69,67,66,96,94,88,29.98,29.96,31,25,40,0.00
2013-2-15,74,70,67,71,68,65,98,94,88,30.00,29.91,24,12,30,0.01
2013-2-16,72,68,65,69,62,54,98,83,63,30.06,29.86,25,13,38,0.56
2013-2-17,64,57,52,56,43,36,79,61,47,30.27,30.07,37,20,44,0.03
2013-2-18,62,56,54,55,46,38,81,70,53,30.27,30.22,25,20,31,0.00
2013-2-23,80,78,76,76,74,73,95,89,84,30.00,29.92,14,7,18,0.00
2013-2-24,82,78,75,77,75,74,96,91,82,29.99,29.92,7,4,10,0.00
2013-2-27,77,74,74,73,71,70,91,90,87,29.95,29.93,13,6,19,0.00
2013-2-28,74,70,66,71,60,50,92,71,46,30.00,29.90,20,10,25,0.05
2013-3-1,70,66,62,62,59,55,88,77,67,29.97,29.90,24,10,27,0.01
2013-3-2,65,61,58,57,51,47,82,71,59,30.03,29.94,25,14,32,0.01
2013-3-3,62,59,53,52,50,46,89,73,59,30.13,29.93,24,11,32,0.00
2013-3-4,64,58,52,53,49,45,82,73,59,30.22,30.10,24,11,28,0.00
2013-3-5,71,67,60,62,57,51,83,72,63,30.15,30.07,14,8,19,0.00
2013-3-6,75,68,63,65,60,51,88,76,63,30.11,30.02,18,9,29,0.00
2013-3-7,63,60,55,54,48,43,81,67,52,30.19,30.08,25,12,34,0.00
2013-3-8,71,64,59,63,58,53,87,79,68,30.18,30.10,19,10,21,0.00
2013-3-9,74,68,64,65,61,56,87,78,71,30.16,30.08,23,12,27,0.00
2013-3-10,72,70,68,64,60,58,76,71,66,30.12,30.02,29,20,31,0.00
2013-3-11,75,72,71,68,65,61,82,77,69,30.06,29.92,27,16,31,0.00
2013-3-12,76,74,73,70,68,66,88,84,79,29.99,29.89,23,16,28,0.00
2013-3-13,72,70,69,61,59,56,76,68,57,30.11,30.09,14,10,20,0.00
2013-3-14,71,67,61,62,53,45,81,61,41,30.19,30.09,29,16,33,0.00
2013-3-15,69,65,59,61,54,47,82,68,52,30.24,30.13,27,17,31,0.00
2013-3-16,71,68,65,60,58,57,82,71,61,30.18,30.08,17,11,21,0.00
2013-3-17,75,72,71,67,63,60,82,73,66,30.11,29.99,18,13,23,0.00
2013-3-18,77,75,73,73,70,67,95,86,81,30.05,29.94,25,12,28,0.00
2013-3-19,74,72,67,73,69,66,97,91,80,30.01,29.91,21,6,29,0.38
2013-3-20,78,72,69,71,68,63,94,87,76,29.98,29.83,18,6,28,0.06
2013-3-21,75,70,68,67,64,62,92,80,68,29.94,29.83,19,6,21,0.00
2013-3-22,71,71,71,66,65,64,83,81,79,29.93,29.88,6,2,7,0.00
2013-4-1,81,78,73,75,73,71,94,87,81,30.05,29.96,10,4,15,0.00
2013-4-2,81,75,72,71,70,67,94,82,65,30.09,29.99,10,5,11,0.00
2013-4-3,78,76,75,74,72,68,89,86,80,30.05,29.96,20,13,23,0.00
2013-4-4,81,78,76,76,74,72,94,89,84,30.03,29.91,17,11,21,0.00
2013-4-5,77,72,65,75,68,64,98,90,73,29.97,29.80,26,11,35,0.72
2013-4-6,75,69,65,69,63,59,90,80,70,30.06,29.93,26,13,30,0.37
2013-4-7,76,75,74,69,68,66,83,79,74,30.09,29.97,26,21,30,0.01
2013-4-8,77,76,75,71,69,68,84,80,76,30.09,29.99,24,21,28,0.01
2013-4-9,78,77,75,73,71,68,87,83,78,30.10,30.01,29,20,33,0.00
2013-4-10,83,79,76,77,74,72,91,86,81,30.07,29.95,25,16,30,0.00
2013-4-11,78,78,78,74,74,74,89,88,87,29.98,29.91,27,22,31,0.00
2013-4-18,81,81,80,76,75,73,84,82,80,30.02,29.94,25,20,30,0.00
2013-4-19,83,81,80,77,75,73,88,83,78,30.02,29.93,26,18,30,0.00
2013-4-20,86,82,79,79,76,72,91,84,71,30.05,29.94,20,7,25,0.00
2013-4-21,87,80,77,78,74,70,90,80,71,30.05,29.96,18,7,24,0.00
2013-4-22,80,77,74,74,72,70,92,85,77,30.03,29.95,14,6,19,0.42
2013-4-24,78,78,78,69,68,67,74,71,69,30.09,30.06,29,26,34,0.00
2013-4-25,79,78,77,69,66,64,73,68,62,30.15,30.05,29,19,35,0.00
2013-4-26,78,77,75,68,66,64,75,69,65,30.19,30.08,25,18,31,0.00
2013-4-27,79,77,75,72,68,65,83,73,67,30.16,30.03,25,19,31,0.00
2013-4-28,78,76,74,72,67,-100,89,84,77,30.06,29.99,28,22,34,0.00
2013-5-1,81,81,81,75,75,75,83,82,82,29.92,29.92,14,14,19,0.00
2013-5-27,80,79,76,76,75,73,90,88,86,30.04,30.03,22,20,28,0.00
2013-5-28,81,79,76,76,74,72,93,85,77,30.05,29.98,33,20,40,0.00
2013-5-29,80,77,72,76,74,71,97,91,84,30.03,29.95,26,17,40,1.83
2013-5-30,80,76,74,76,74,72,98,93,85,30.01,29.93,30,14,37,1.32
2013-5-31,83,79,74,78,75,71,95,89,83,30.01,29.94,20,9,24,0.14
2013-6-1,82,79,74,79,76,73,98,90,81,30.01,29.92,20,6,26,2.18
2013-6-2,84,78,75,78,74,-100,98,89,75,29.98,29.90,21,5,27,2.13
2013-6-3,81,78,75,78,75,73,95,90,85,29.97,29.89,19,6,24,0.31
2013-6-6,86,81,74,81,78,72,98,89,83,29.86,29.79,25,12,37,0.62
2013-6-7,86,82,75,81,78,73,95,88,84,30.00,29.84,19,9,22,1.05
2013-6-8,85,82,79,81,78,76,93,88,83,30.06,29.95,21,12,0,0.00
2013-6-9,84,83,80,79,77,75,89,84,80,30.06,29.98,23,19,0,0.00
2013-6-10,84,83,82,79,78,77,89,86,83,30.04,29.95,21,18,0,0.00
2013-6-11,85,82,81,79,78,77,91,87,81,30.05,29.98,18,10,0,0.00
2013-6-14,86,84,81,77,76,74,87,78,71,29.97,29.90,10,6,13,0.00
2013-6-15,87,84,81,78,77,75,86,80,73,30.02,29.92,13,5,16,0.00
2013-6-16,85,84,83,78,77,75,85,81,76,30.05,29.98,20,13,25,0.00
2013-6-17,85,84,83,80,79,77,87,84,78,30.05,29.97,22,15,26,0.00
2013-6-18,86,84,83,80,79,78,89,85,79,30.03,29.97,19,13,22,0.00
2013-6-19,87,84,83,80,78,77,87,82,77,30.02,29.96,17,11,20,0.00
2013-6-20,86,85,83,79,78,75,84,79,75,30.05,29.98,18,12,23,0.00
2013-6-22,92,86,83,84,78,76,85,77,67,30.06,30.00,17,7,19,0.00
2013-6-23,88,83,80,79,77,75,90,83,71,30.09,30.00,13,7,19,0.02
2013-6-24,91,84,80,81,77,75,88,80,71,30.12,30.03,14,10,24,0.01
2013-6-25,91,83,80,81,78,76,89,84,72,30.08,29.99,14,8,20,0.01
2013-6-26,93,84,81,82,78,76,88,81,69,30.04,29.97,20,10,24,0.01
2013-6-27,86,83,81,79,77,73,86,82,73,30.02,29.93,20,10,25,0.00
2013-6-28,88,85,82,79,77,76,84,78,72,29.97,29.85,12,6,18,0.00
2013-6-29,95,86,80,82,78,75,89,78,65,29.91,29.83,18,6,28,0.00
2013-6-30,92,85,81,80,77,74,85,78,66,29.93,29.84,13,8,27,0.00
2013-7-1,89,84,82,80,77,74,85,80,72,30.00,29.88,14,5,23,0.00
2013-7-2,92,82,76,82,77,74,96,88,67,30.07,29.94,19,4,27,0.35
2013-7-3,88,82,77,81,78,74,96,87,77,30.08,30.00,10,5,18,0.32
2013-7-4,88,83,79,81,78,76,95,86,76,30.09,30.01,17,10,24,0.50
2013-7-5,82,80,76,80,77,74,96,90,84,30.09,30.00,17,6,25,0.63
2013-7-6,87,82,78,81,78,76,96,87,78,30.06,29.98,16,10,21,0.39
2013-7-7,89,83,80,81,77,75,89,83,73,30.04,29.98,16,10,23,0.02
2013-7-8,88,83,80,78,76,74,87,80,70,30.10,30.02,19,9,25,0.02
2013-7-9,85,82,80,78,75,73,90,82,74,30.11,30.02,9,2,13,0.33
2013-7-10,90,82,77,80,73,-100,92,78,67,30.05,29.97,9,2,13,0.02
2013-7-11,81,80,80,76,76,75,86,85,83,30.02,29.96,4,1,8,0.01
2013-7-16,82,79,75,79,75,73,96,89,82,30.06,29.99,21,11,31,0.35
2013-7-17,80,77,74,76,74,72,96,92,84,30.09,29.99,16,5,22,0.51
2013-7-18,82,77,72,79,75,71,97,93,87,30.08,30.00,20,5,24,0.66
2013-7-19,87,82,78,81,78,76,95,91,82,30.09,30.00,13,8,18,0.01
2013-7-20,91,84,79,84,78,-100,95,85,75,30.08,29.99,10,3,16,0.09
2013-7-21,93,85,81,84,79,77,93,85,72,30.11,30.03,11,4,15,0.01
2013-7-22,92,84,81,81,78,76,89,82,69,30.12,30.04,13,5,16,0.00
2013-7-23,92,85,81,82,78,75,90,81,68,30.09,29.98,13,3,16,0.00
2013-7-24,94,85,79,82,77,75,90,77,66,30.02,29.93,7,2,11,0.00
2013-7-25,89,85,79,78,76,74,87,76,67,30.03,29.92,8,2,14,0.00
2013-7-26,93,85,80,80,77,75,88,77,63,30.03,29.97,11,3,18,0.00
2013-7-27,94,86,81,83,78,75,90,78,67,30.01,29.93,6,2,11,0.02
2013-7-28,93,84,78,83,78,74,95,83,68,30.05,29.93,6,1,10,0.24
2013-7-29,92,85,82,82,78,76,86,80,68,30.09,29.98,15,5,19,0.00
2013-7-30,89,84,80,82,79,76,93,84,76,30.11,30.04,17,7,25,0.04
2013-7-31,90,85,81,81,79,76,90,81,71,30.07,29.95,15,9,22,0.08
2013-8-1,92,85,82,80,78,76,85,78,67,30.01,29.90,20,7,24,0.08
2013-8-2,94,85,79,82,78,74,89,79,66,30.04,29.91,8,1,10,0.00
2013-8-3,92,85,82,82,79,77,86,81,69,30.09,30.01,7,4,13,0.00
2013-8-4,91,87,82,82,78,76,87,76,64,30.08,29.99,4,0,7,0.00
2013-8-5,91,86,80,79,77,74,87,75,60,30.04,29.95,5,1,9,0.00
2013-8-6,91,82,77,83,78,75,96,88,74,29.97,29.88,15,3,24,0.70
2013-8-7,92,85,81,82,78,76,88,81,71,29.94,29.87,12,4,21,0.13
2013-8-8,92,86,83,82,78,76,85,79,69,29.96,29.87,16,9,26,0.03
2013-8-9,88,83,80,79,76,74,86,81,73,29.98,29.90,18,8,25,0.03
2013-8-11,84,83,83,79,78,78,86,85,84,30.06,30.04,10,8,18,0.00
2013-8-12,90,84,82,81,78,75,85,80,73,30.06,29.96,10,5,19,0.00
2013-8-13,91,84,81,82,75,-100,85,78,71,30.01,29.93,14,8,19,0.00
2013-8-14,91,82,82,82,72,-100,85,78,71,29.99,29.90,15,6,22,0.00
2013-8-21,87,83,79,81,78,76,93,87,80,30.02,29.96,18,8,25,0.26
2013-8-22,88,83,76,82,79,74,96,89,82,30.01,29.90,15,10,28,0.44
2013-8-23,91,85,81,82,79,76,89,83,74,29.97,29.90,11,6,18,0.06
2013-8-24,92,86,81,82,79,75,87,80,70,30.05,29.94,10,4,15,0.00
2013-8-25,87,82,81,80,75,-100,88,81,76,30.09,29.98,11,3,15,0.03
2013-8-26,83,81,76,79,76,73,94,87,82,30.09,29.97,14,4,24,0.25
2013-8-27,81,80,76,76,74,72,92,83,77,30.01,29.94,13,5,19,0.11
2013-8-28,85,82,80,80,77,75,90,84,78,30.00,29.93,8,2,14,2.31
2013-8-30,87,84,81,81,78,76,87,82,76,29.98,29.90,6,2,10,0.00
2013-8-31,91,84,78,81,78,74,90,82,69,29.96,29.89,10,2,14,0.00
2013-9-1,88,80,79,80,72,-100,91,82,76,29.96,29.90,9,2,12,0.03
2013-9-6,89,85,82,81,79,77,89,82,75,29.99,29.88,14,8,19,0.01
2013-9-7,85,82,79,78,76,73,91,83,71,29.98,29.86,12,6,29,0.14
2013-9-8,87,82,80,79,74,-100,91,81,76,29.91,29.83,8,3,12,0.00
2013-9-9,88,84,81,81,78,76,85,81,75,29.95,29.85,12,5,16,0.00
2013-9-10,88,84,81,81,78,76,86,82,75,29.98,29.90,16,8,21,0.00
2013-9-11,89,84,80,82,78,76,93,84,76,29.98,29.91,18,6,25,0.39
2013-9-12,86,83,78,80,78,75,94,85,79,29.97,29.85,8,4,15,0.59
2013-9-13,89,84,81,80,77,76,85,81,73,29.87,29.78,6,3,11,0.00
2013-9-14,89,84,81,81,78,75,86,81,74,29.93,29.80,14,5,19,0.00
2013-9-15,85,81,81,81,75,-100,91,85,84,29.98,29.87,13,7,20,0.00
2013-9-16,83,80,74,79,77,72,96,91,82,30.04,29.91,14,7,25,0.72
2013-9-17,82,80,78,78,77,75,95,90,87,29.99,29.88,14,5,21,0.13
2013-9-18,81,81,81,79,78,78,94,92,90,29.93,29.87,10,3,13,0.05
2013-9-19,86,82,79,80,78,76,93,87,78,29.97,29.89,10,5,15,0.00
2013-9-20,86,82,78,78,75,71,91,81,68,29.97,29.86,21,11,26,0.02
2013-9-21,87,82,80,78,77,73,89,83,75,29.87,29.75,13,3,18,0.18
2013-10-2,86,81,77,81,78,75,96,90,81,29.98,29.91,12,5,18,0.58
2013-10-3,88,84,80,81,78,76,92,85,78,30.00,29.90,13,7,18,0.06
2013-10-4,87,84,81,79,77,75,88,82,76,30.00,29.93,12,6,18,0.06
2013-10-5,84,82,81,77,75,73,86,80,77,29.98,29.89,10,4,14,0.00
2013-10-6,87,83,80,78,75,72,85,77,71,29.94,29.85,6,2,12,0.00
2013-10-7,88,83,80,79,77,75,86,81,74,29.90,29.81,13,5,19,0.00
2013-10-8,88,83,81,79,77,75,88,82,74,29.93,29.83,13,4,21,0.00
2013-10-9,84,81,77,77,74,69,90,80,63,29.96,29.89,5,1,9,0.00
2013-10-10,85,82,79,78,76,74,90,83,78,29.97,29.90,15,5,21,0.11
2013-10-13,85,80,79,75,69,-100,77,73,69,30.01,29.92,8,4,14,0.00
2013-10-14,83,80,77,73,72,70,84,76,68,29.97,29.86,10,6,16,0.00
2013-10-15,83,80,77,74,72,70,85,78,66,29.92,29.84,10,5,15,0.00
2013-10-16,83,80,76,75,74,73,89,82,72,29.92,29.85,12,4,19,0.02
2013-10-17,85,80,75,77,75,72,94,85,77,29.93,29.85,8,2,12,0.12
2013-10-18,86,82,80,79,76,74,86,83,79,29.93,29.86,13,6,18,0.00
2013-10-19,86,82,80,80,77,76,89,87,81,29.93,29.86,13,5,19,0.00
2013-10-21,89,85,81,81,78,76,86,80,75,29.98,29.88,5,1,10,0.00
2013-10-22,89,84,80,80,78,75,88,83,73,29.94,29.83,8,2,12,0.00
2013-10-23,86,83,81,78,77,76,88,83,76,29.92,29.80,12,2,20,0.00
2013-10-24,82,80,78,76,74,72,89,83,78,30.01,29.88,18,12,28,0.00
2013-10-25,80,79,77,70,69,68,79,73,70,30.08,30.04,21,15,28,0.00
2013-10-26,81,78,76,72,70,68,84,78,71,30.08,30.01,14,10,22,0.00
2013-10-27,81,76,75,72,68,-100,83,76,71,30.05,29.97,12,8,20,0.00
2013-10-28,81,77,76,74,69,-100,86,80,73,30.09,29.99,11,7,16,0.00
2013-10-29,82,79,76,73,72,71,88,81,72,30.13,30.03,12,7,16,0.00
2013-10-30,83,79,77,74,72,70,85,77,72,30.11,30.02,15,7,24,0.00
2013-11-4,80,76,73,74,70,67,95,82,68,30.01,29.92,20,12,26,0.38
2013-11-5,79,77,75,75,74,72,94,89,86,30.00,29.92,18,10,27,0.24
2013-11-6,80,78,76,76,75,73,93,89,85,30.00,29.93,15,7,27,0.06
2013-11-7,80,78,76,74,74,72,91,87,79,29.99,29.89,10,6,15,0.01
2013-11-8,80,78,74,75,73,70,90,86,82,29.98,29.90,16,11,24,0.00
2013-11-9,83,77,76,77,72,-100,93,88,83,30.04,29.95,13,6,19,0.43
2013-11-10,80,78,75,77,75,73,96,93,89,30.06,29.98,13,6,21,1.44
2013-11-11,78,78,78,75,75,75,92,92,92,30.02,30.02,9,9,14,0.00
2013-11-14,74,74,74,68,68,68,81,81,81,30.12,30.12,11,10,20,0.00
2013-12-3,79,73,67,71,68,64,94,84,74,29.98,29.88,6,1,10,0.00
2013-12-4,81,76,73,74,71,68,90,84,77,30.05,29.95,8,3,11,0.00
2013-12-5,81,77,74,73,71,69,87,83,76,30.12,30.02,13,8,19,0.00
2013-12-6,81,78,76,74,72,70,89,83,78,30.14,30.03,15,10,22,0.00
2013-12-7,80,76,75,75,69,-100,90,84,81,30.16,30.09,10,5,20,0.00
2013-12-8,80,78,76,74,72,70,92,84,77,30.16,30.07,16,11,23,0.01
2013-12-9,79,78,77,74,72,70,87,81,73,30.14,30.08,24,20,33,0.00
2013-12-15,83,79,76,78,75,73,91,88,83,30.04,29.93,16,8,21,0.00
2013-12-16,76,73,70,73,68,65,92,85,75,30.12,30.01,23,14,27,0.00
2013-12-17,76,71,68,71,67,65,92,87,81,30.14,30.04,20,15,24,0.00
2013-12-18,74,72,69,68,64,61,85,78,67,30.18,30.09,22,19,27,0.00
2013-12-19,76,73,68,72,67,64,88,82,72,30.17,30.08,26,19,30,0.00
2013-12-20,79,78,76,74,73,71,89,85,83,30.12,30.04,28,22,32,0.00
2013-12-21,79,78,78,74,73,72,87,85,82,30.09,30.03,25,21,29,0.00
2013-12-23,80,79,78,75,74,73,89,86,83,30.14,30.07,22,14,26,0.00
2013-12-24,79,76,70,75,72,66,92,87,82,30.14,30.03,30,10,34,0.00
2013-12-25,76,72,69,73,70,66,97,91,86,30.10,30.03,28,20,33,0.07
2013-12-26,78,75,72,73,72,70,96,89,81,30.11,30.01,22,14,26,0.03
2013-12-27,78,77,75,75,74,72,94,89,85,30.12,30.03,25,17,29,0.03
2013-12-28,79,77,78,75,71,-100,91,85,84,30.11,29.99,27,21,35,0.00
2013-12-29,80,79,78,76,75,74,90,88,86,30.03,29.93,21,13,24,0.00